Weather History for KASX - September, 2013

Change the Weather History Date:

Tuesday, September 3, 2013

  Actual Average Record
Temperature  
Mean Temperature 62 °F -  
Max Temperature 75 °F 75 °F 95 °F (1983)
Min Temperature 48 °F 49 °F 33 °F (1974)
Degree Days  
Heating Degree Days 4    
Growing Degree Days 12 (Base 50)    
Moisture  
Dew Point 52 °F    
Average Humidity 73    
Maximum Humidity 93    
Minimum Humidity 51    
Precipitation  
Precipitation 0.00 in - - ()
Sea Level Pressure  
Sea Level Pressure 30.01 in    
Wind  
Wind Speed 7 mph (WSW)    
Max Wind Speed 12 mph    
Max Gust Speed 18 mph    
Visibility 10 miles    
Events      
Averages and records for this station are not official NWS values.
T = Trace of Precipitation, MM = Missing Value Source: NWS Daily Summary

Daily Weather History Graph

Daily Weather History Graph

Search for Another Location

Airport or City:

Trip Planner

Search our weather history database for the weather conditions in past years. The results will help you decide how hot, cold, wet, or windy it might be!

Date:

Astronomy

Sep. 03, 2013 Rise Set
Actual Time 6:26 AM CDT 7:38 PM CDT
Civil Twilight 5:55 AM CDT 8:09 PM CDT
Nautical Twilight 5:18 AM CDT 8:46 PM CDT
Astronomical Twilight 4:38 AM CDT 9:26 PM CDT
Moon 4:37 AM CDT (9/3) 6:26 PM CDT (9/3)
Length of Visible Light 14h 13m
Length of Day
13h 11m
Waning Crescent, 3% of the Moon is Illuminated
Sep 3
Waning Crescent
Sep 5
New
Sep 12
First Quarter
Sep 19
Full
Sep 26
Last Quarter

Hourly Weather History & Observations

Time (CDT) Temp. Dew Point Humidity Pressure Visibility Wind Dir Wind Speed Gust Speed Precip Events Conditions
12:53 AM 48.9 °F 46.9 °F 93% 30.06 in 10.0 mi WSW 4.6 mph - N/A   Clear
1:53 AM 48.9 °F 46.0 °F 90% 30.06 in 10.0 mi SW 4.6 mph - N/A   Clear
2:53 AM 50.0 °F 46.9 °F 89% 30.05 in 10.0 mi WSW 6.9 mph - N/A   Clear
3:53 AM 50.0 °F 46.9 °F 89% 30.05 in 10.0 mi WSW 6.9 mph - N/A   Clear
4:53 AM 48.0 °F 46.0 °F 93% 30.05 in 10.0 mi WSW 6.9 mph - N/A   Clear
5:53 AM 48.9 °F 46.0 °F 90% 30.06 in 10.0 mi WSW 6.9 mph - N/A   Clear
6:53 AM 48.9 °F 46.9 °F 93% 30.07 in 10.0 mi WSW 5.8 mph - N/A   Clear
7:53 AM 53.1 °F 50.0 °F 89% 30.08 in 10.0 mi WSW 8.1 mph - N/A   Clear
8:53 AM 57.0 °F 52.0 °F 83% 30.08 in 10.0 mi WSW 8.1 mph - N/A   Clear
9:53 AM 62.1 °F 52.0 °F 70% 30.07 in 10.0 mi SW 9.2 mph - N/A   Clear
10:53 AM 66.0 °F 53.1 °F 63% 30.06 in 10.0 mi West 5.8 mph - N/A   Clear
11:53 AM 69.1 °F 54.0 °F 58% 30.04 in 10.0 mi SW 9.2 mph 17.3 mph N/A   Clear
12:53 PM 72.0 °F 55.0 °F 55% 30.01 in 10.0 mi West 11.5 mph 18.4 mph N/A   Clear
1:53 PM 73.0 °F 55.0 °F 53% 30.00 in 10.0 mi West 9.2 mph - N/A   Clear
2:53 PM 73.9 °F 57.0 °F 55% 29.99 in 10.0 mi WSW 9.2 mph 18.4 mph N/A   Clear
3:53 PM 75.0 °F 55.9 °F 51% 29.97 in 10.0 mi WSW 11.5 mph - N/A   Clear
4:53 PM 75.0 °F 55.9 °F 51% 29.95 in 10.0 mi SW 11.5 mph - N/A   Clear
5:53 PM 73.0 °F 55.9 °F 55% 29.95 in 10.0 mi WSW 8.1 mph 16.1 mph N/A   Clear
6:53 PM 70.0 °F 55.9 °F 61% 29.95 in 10.0 mi SW 5.8 mph - N/A   Clear
7:53 PM 64.0 °F 55.0 °F 73% 29.95 in 10.0 mi SW 6.9 mph - N/A   Clear
8:53 PM 64.0 °F 55.0 °F 73% 29.96 in 10.0 mi SW 5.8 mph - N/A   Clear
9:53 PM 64.0 °F 55.0 °F 73% 29.96 in 10.0 mi SW 9.2 mph - N/A   Clear
10:53 PM 64.0 °F 55.0 °F 73% 29.96 in 10.0 mi SW 8.1 mph - N/A   Clear
11:53 PM 64.9 °F 55.0 °F 70% 29.96 in 10.0 mi WSW 9.2 mph - N/A   Clear